Regional Weather Roundup
Issued by NWS

Home | Current Version | Previous Version | Text Only | Print | Product List | Glossary On
Versions: 1 2 3 4 5 6 7 8 9 10 11 12 13 14 15 16 17 18 19 20 21 22 23 24 25 26 27 28 29 30 31 32 33 34 35 36 37 38 39 40 41 42 43 44 45 46 47 48 49 50
000
ASUS44 KFWD 030601
RWRTX
NORTH TEXAS HOURLY WEATHER ROUNDUP
NATIONAL WEATHER SERVICE FORT WORTH TX
100 AM CDT WED SEP 03 2014

NOTE: "FAIR" INDICATES FEW OR NO CLOUDS BELOW 12,000 FEET WITH NO
SIGNIFICANT WEATHER AND/OR OBSTRUCTIONS TO VISIBILITY.

TXZ118-119-030700-
DALLAS/FORT WORTH METROPLEX

CITY           SKY/WX    TMP DP  RH WIND       PRES   REMARKS
DFW AIRPORT    FAIR      82  73  74 S14       29.93S
6HR MIN TEMP:  82; 6HR MAX TEMP:  95;

DALLAS LOVE    FAIR      81  73  76 S16       29.94S
6HR MIN TEMP:  81; 6HR MAX TEMP:  94;

FTW MEACHAM    FAIR      82  71  69 S15       29.92F
6HR MIN TEMP:  82; 6HR MAX TEMP:  95;

DAL-EXECUTIVE  FAIR      81  73  76 SE12G18   29.94S
6HR MIN TEMP:  81; 6HR MAX TEMP:  96;

FTW-ALLIANCE   FAIR      81  71  71 S15       29.92S
6HR MIN TEMP:  81; 6HR MAX TEMP:  94;

FTW-NAS-JRB    FAIR      85  69  58 S12       29.96F
6HR MIN TEMP:  85; 6HR MAX TEMP:  97;

FTW-SPINKS     FAIR      81  71  73 S13       29.95S
6HR MIN TEMP:  80; 6HR MAX TEMP:  92;

ARLINGTON      FAIR      81  72  74 SE12      29.94S
6HR MIN TEMP:  81; 6HR MAX TEMP:  94;

GRAND PRAIRIE  FAIR      82  71  70 SE10G17   29.95S
6HR MIN TEMP:  82; 6HR MAX TEMP:  95;

ADDISON        FAIR      81  72  73 S12       29.96S
6HR MIN TEMP:  81; 6HR MAX TEMP:  94;

MESQUITE       FAIR      78  73  84 S9        29.95S
6HR MIN TEMP:  78; 6HR MAX TEMP:  93;

LANCASTER      FAIR      77  72  84 SE5       29.95F
6HR MIN TEMP:  77; 6HR MAX TEMP:  90;

$$

TXZ091>094-102>105-117-120-121-131>134-030700-
NORTH CENTRAL TEXAS

CITY           SKY/WX    TMP DP  RH WIND       PRES   REMARKS
SHRMAN/DENISON FAIR      80  70  72 S13       29.95S
6HR MIN TEMP:  80; 6HR MAX TEMP:  91;

GAINESVILLE    FAIR      80  71  75 SE10      29.95S
6HR MIN TEMP:  80; 6HR MAX TEMP:  90;

BOWIE          FAIR      81  71  71 SE7G18    29.93S
6HR MIN TEMP:  80; 6HR MAX TEMP:  91;

BRIDGEPORT     FAIR      82  68  62 SE9       29.94S
6HR MIN TEMP:  82; 6HR MAX TEMP:  94;

DECATUR        FAIR      80  68  66 SE9       29.94F
6HR MIN TEMP:  80; 6HR MAX TEMP:  92;

DENTON         FAIR      82  71  69 S10       29.93S
6HR MIN TEMP:  81; 6HR MAX TEMP:  94;

MCKINNEY       FAIR      79  73  82 S10       29.95S
6HR MIN TEMP:  79; 6HR MAX TEMP:  91;

GREENVILLE     FAIR      79  72  78 S10       29.96S
ROCKWALL       FAIR      78  74  86 S9        29.94S
6HR MIN TEMP:  78; 6HR MAX TEMP:  89;

TERRELL        FAIR      80  76  87 S9        29.95F
6HR MIN TEMP:  80; 6HR MAX TEMP:  92;

WAXAHACHIE     FAIR      78  71  78 SE7       29.96S
6HR MIN TEMP:  78; 6HR MAX TEMP:  92;

GRANBURY       FAIR      84  71  64 SE12      29.93F
6HR MIN TEMP:  84; 6HR MAX TEMP:  97;

$$

TXZ083>090-098>101-113>116-127>130-139>142-154-155-030700-
WESTERN NORTH TEXAS

CITY           SKY/WX    TMP DP  RH WIND       PRES   REMARKS
WICHITA FALLS  FAIR      84  68  58 S16       29.89S
6HR MIN TEMP:  82; 6HR MAX TEMP:  94;

WF-KICKAPOO    FAIR      83  66  56 SE9       29.90F
6HR MIN TEMP:  83; 6HR MAX TEMP:  95;

VERNON         FAIR      82  62  51 SE6       29.90S
6HR MIN TEMP:  82; 6HR MAX TEMP:  99;

ABILENE        FAIR      84  67  56 S16G22    29.94S
6HR MIN TEMP:  83; 6HR MAX TEMP:  95;

ABILENE-DYESS  FAIR      82  67  61 S12       29.93F
6HR MIN TEMP:  81; 6HR MAX TEMP:  94;

BRECKENRIDGE   FAIR      85  67  55 S12G21    29.91F
6HR MIN TEMP:  85; 6HR MAX TEMP:  96;

MINERAL WELLS  FAIR      81  71  71 SE9       29.91F
6HR MIN TEMP:  81; 6HR MAX TEMP:  93;

STEPHENVILLE   FAIR      81  68  64 S8        29.97F
6HR MIN TEMP:  81; 6HR MAX TEMP:  93;

COMANCHE         N/A     81  67  61 S9        29.95S
6HR MIN TEMP:  81; 6HR MAX TEMP:  94;

BROWNWOOD      CLOUDY    82  68  61 SE10      29.95S
COLEMAN        FAIR      82  65  56 S12       29.96S
6HR MIN TEMP:  82; 6HR MAX TEMP:  94;

BRADY          CLEAR     81  66  61 SE10      29.97S
$$

TXZ143>147-156>162-174-175-030700-
CENTRAL TEXAS

CITY           SKY/WX    TMP DP  RH WIND       PRES   REMARKS
WACO           FAIR      82  71  69 S16       29.95S
6HR MIN TEMP:  82; 6HR MAX TEMP:  93;

WACO-MCGREGOR  FAIR      81  68  65 S12       29.96S
6HR MIN TEMP:  81; 6HR MAX TEMP:  93;

HILLSBORO      FAIR      80  71  73 SE12      29.95S
6HR MIN TEMP:  80; 6HR MAX TEMP:  92;

CORSICANA      FAIR      79  74  84 SE9       29.97S
6HR MIN TEMP:  79; 6HR MAX TEMP:  88;

MEXIA          FAIR      77  73  87 SE8       29.96S
6HR MIN TEMP:  77; 6HR MAX TEMP:  82;

HEARNE           N/A     78  73  85 CALM      29.98R
6HR MIN TEMP:  78; 6HR MAX TEMP:  86;

CAMERON        FAIR      80  73  78 SE5       29.96S
6HR MIN TEMP:  80; 6HR MAX TEMP:  92;

TEMPLE         FAIR      81  68  65 S14G21    29.95F
6HR MIN TEMP:  81; 6HR MAX TEMP:  91;

KILLEEN        CLEAR     81  72  74 S16       29.96F
KILLEEN-SKYLRK FAIR      79  68  69 S10       29.96S
6HR MIN TEMP:  79; 6HR MAX TEMP:  91;

FORT HOOD      FAIR      82  71  69 SE8       29.96S
6HR MIN TEMP:  82; 6HR MAX TEMP:  95;

HAMILTON       FAIR      81  68  65 S9G22     29.97S
6HR MIN TEMP:  81; 6HR MAX TEMP:  92;

LAMPASAS       FAIR      81  74  80 S8        29.96F
6HR MIN TEMP:  81; 6HR MAX TEMP:  93;

$$

TXZ095>097-106>112-122>126-135>138-148>153-164>167-030700-
EAST TEXAS

CITY           SKY/WX    TMP DP  RH WIND       PRES   REMARKS
PARIS          FAIR      73  66  78 SE8       29.98S
6HR MIN TEMP:  73; 6HR MAX TEMP:  88;

SULPHUR SPRNGS FAIR      78  72  83 S7        29.98F
6HR MIN TEMP:  78; 6HR MAX TEMP:  89;

MOUNT PLEASANT FAIR      73  72  96 E3        29.99S
6HR MIN TEMP:  73; 6HR MAX TEMP:  81;

MINEOLA        FAIR      79  75  89 SE5       29.97F
TYLER          FAIR      78  74  87 S10       29.97S
6HR MIN TEMP:  78; 6HR MAX TEMP:  83;

LONGVIEW       FAIR      75  72  90 SE5       29.97S
6HR MIN TEMP:  75; 6HR MAX TEMP:  78;

MARSHALL       CLOUDY    78  76  92 S5        30.00F
6HR MIN TEMP:  76; 6HR MAX TEMP:  78;

ATHENS         FAIR      77  73  88 SE5       29.96S
PALESTINE      FAIR      77  75  94 SE6       29.98S
JACKSONVILLE   FAIR      77  75  93 S9        30.00S
HENDERSON      FAIR      76  75  95 CALM      29.99S
6HR MIN TEMP:  74; 6HR MAX TEMP:  77;

NACOGDOCHES    FAIR      75  73  94 SE5       29.99S
6HR MIN TEMP:  73; 6HR MAX TEMP:  75;

LUFKIN         FAIR      77  73  87 E5        29.98S
6HR MIN TEMP:  77; 6HR MAX TEMP:  79;

$$

SUPPLEMENTAL OBSERVATIONS (CENTRAL)

CITY           SKY/WX    TMP DP  RH WIND       PRES   REMARKS
$$

SUPPLEMENTAL OBSERVATIONS (WEST)

CITY           SKY/WX    TMP DP  RH WIND       PRES   REMARKS
$$

SUPPLEMENTAL OBSERVATIONS (EAST)

CITY           SKY/WX    TMP DP  RH WIND       PRES   REMARKS
$$

SUPPLEMENTAL OBSERVATIONS ARE A COLLECTION OF AUTOMATED INSTRUMENTS
THAT ARE MAINTAINED BY A VARIETY OF FEDERAL AND STATE AGENCIES.
CERTAIN ELEMENTS...SUCH AS HUMIDITY VALUES AND SUSTAINED WIND
SPEEDS...MAY BE APPROXIMATED.




USA.gov is the U.S. government's official web portal to all federal, state and local government web resources and services.